Content
SEND FEEDBACK

Daily
Averages
Monthly
Summary
United States of America

ANN ARBOR, MICHIGAN


Home > North America > United States > Michigan
Elevation: 231 meters     Latitude: 42 17N     Longitude: 083 43W

WEATHER
 
SELECT A DAY
Number of Records: 204,337;   Date Range: 1/1/95 - 9/16/14
 
SHARE

PRINT THIS DATA

[ ← Previous Day ]
WEATHER ALMANAC - 28 SEPTEMBER, 2013
[ Next Day → ]
[ °F ]   °C
Weather ElementAverageHighLow
Temperature13.1 °C24.4 °C (2:53 pm)7 °C (3:46 am)
Dewpoint10.7 °C16 °C (10:09 am)7 °C (3:46 am)
Humidity88.2 %100 % (12:05 am)42 % (2:53 pm)
Barometer1021.3 hPa1023 hPa (8:53 am)1016.6 hPa (11:53 pm)
Wind Speed4 km/h16.7 km/h (3:53 pm)
Wind Gust31.5 km/h (4:53 pm)
Weather ElementAverage
Visibility6.8 km
Wind DirectionNE (49.6 °)

Weather ElementTotal
Precipitation0.25 mm
Heating Degree Days2.7 (Base 18.3)
Growing Degree Days5.7 (Base 10)
Averaged from 49 records on 28 September, 2013
WEATHER CONDITIONS BREAKOUT
WIND DIRECTION BREAKOUT
WEATHER BY HOUR - 28 SEPTEMBER, 2013
[ °F ]   °C
Local TimeTemperatureDewpointHumidityBarometerVisibilityWind DirectionWind SpeedGust SpeedPrecipitationEventsConditions
12:05 AM8 °C8 °C100 %1022.4 hPa4.8 kmCalmClear
12:09 AM8 °C8 °C100 %1022.4 hPa2.4 kmCalmClear
12:13 AM8 °C8 °C100 %1022.4 hPa1.3 kmCalmClear
12:34 AM8 °C8 °C100 %1022.4 hPa3.2 kmCalmClear
12:41 AM8 °C8 °C100 %1022.4 hPa16.1 kmENE (70°)5.6 km/hClear
12:53 AM8.3 °C7.8 °C97 %1022.4 hPa2.9 kmENE (70°)5.6 km/hClear
1:00 AM9 °C9 °C100 %1022.4 hPa1.6 kmEast (80°)5.6 km/hClear
1:04 AM9 °C9 °C100 %1022.4 hPa6.4 kmEast (80°)5.6 km/hClear
1:53 AM10 °C10 °C100 %1022 hPa12.9 kmEast (90°)5.6 km/hClear
2:19 AM11 °C10 °C94 %1022.4 hPa2.4 kmCalmClear
2:22 AM11 °C10 °C94 %1022.4 hPa1.3 kmCalmClear
2:53 AM10 °C9.4 °C96 %1022 hPa0.3 kmCalmFogFog
3:06 AM9 °C9 °C100 %1022 hPa0.8 kmCalmFogFog
3:20 AM10 °C10 °C100 %1022 hPa1.6 kmCalmClear
3:26 AM9 °C9 °C100 %1022 hPa1.3 kmCalmMist
3:40 AM8 °C8 °C100 %1022 hPa1.9 kmCalmClear
3:42 AM8 °C8 °C100 %1022 hPa4.8 kmCalmClear
3:46 AM7 °C7 °C100 %1022 hPa2.4 kmCalmClear
3:48 AM7 °C7 °C100 %1022 hPa1.3 kmCalmClear
3:53 AM7.8 °C7.8 °C100 %1022 hPa0.3 kmNorth (10°)5.6 km/hFogFog
4:03 AM8 °C8 °C100 %1022 hPa0.8 kmNNE (30°)5.6 km/hFogFog
4:08 AM8 °C8 °C100 %1022 hPa1.9 kmNE (50°)5.6 km/hPartly Cloudy
4:10 AM9 °C8 °C93 %1022 hPa4 kmENE (60°)5.6 km/hPartly Cloudy
4:17 AM10 °C10 °C100 %1022 hPa1.9 kmCalmPartly Cloudy
4:23 AM10 °C10 °C100 %1022 hPa1.3 kmNE (40°)5.6 km/hMist
4:40 AM10 °C9 °C94 %1022 hPa0.3 kmCalmFogFog
4:53 AM9.4 °C8.9 °C97 %1022 hPa0.3 kmCalmFogFog
5:53 AM10.6 °C10.6 °C100 %1022.4 hPa0.3 kmCalmFogFog
6:53 AM12.8 °C12.2 °C96 %1022.4 hPa0.3 kmCalmFogFog
7:53 AM13.3 °C13.3 °C100 %1022.7 hPa0.3 kmCalm0.25 mmFogFog
8:53 AM13.9 °C13.9 °C100 %1023 hPa0.3 kmCalmFogFog
9:45 AM16 °C15 °C94 %1022.7 hPa2.9 kmCalmOvercast
9:48 AM16 °C15 °C94 %1022.7 hPa4.8 kmCalmMostly Cloudy
9:53 AM15.6 °C15 °C96 %1022.7 hPa6.4 kmCalmOvercast
10:09 AM16 °C16 °C100 %1022.7 hPa12.9 kmESE (120°)5.6 km/hClear
10:53 AM18.9 °C13.9 °C73 %1023 hPa16.1 kmSSE (160°)5.6 km/hClear
11:53 AM21.1 °C13.3 °C61 %1022.4 hPa16.1 kmSE (130°)7.4 km/hClear
12:53 PM22.8 °C12.2 °C51 %1021.7 hPa16.1 kmSSE (160°)14.8 km/hClear
1:53 PM23.9 °C11.7 °C46 %1020.7 hPa16.1 kmSouth (170°)11.1 km/hClear
2:53 PM24.4 °C10.6 °C42 %1019.3 hPa16.1 kmVariable5.6 km/hClear
3:53 PM23.9 °C11.7 °C46 %1019 hPa16.1 kmSSE (150°)16.7 km/hClear
4:53 PM23.9 °C12.8 °C50 %1018.3 hPa16.1 kmSSE (160°)14.8 km/h31.5 km/hClear
5:53 PM22.8 °C12.2 °C51 %1017.9 hPa16.1 kmSE (140°)11.1 km/hClear
6:53 PM20 °C12.2 °C61 %1017.9 hPa16.1 kmSE (130°)13 km/hClear
7:53 PM18.3 °C13.3 °C73 %1017.9 hPa16.1 kmSE (130°)9.3 km/hClear
8:53 PM17.2 °C13.3 °C78 %1017.9 hPa16.1 kmSE (130°)9.3 km/hClear
9:53 PM16.7 °C13.9 °C84 %1017.6 hPa16.1 kmSE (130°)7.4 km/hClear
10:53 PM16.7 °C13.9 °C84 %1016.9 hPa16.1 kmSE (140°)7.4 km/hClear
11:53 PM16.7 °C12.8 °C78 %1016.6 hPa16.1 kmCalmClear
Hourly data recorded from KARB, located 0 kilometers away from Ann Arbor, Michigan







STORIES FROM OUR PARTNERS